Regional Weather Roundup
Issued by NWS

Home | Current Version | Previous Version | Graphics & Text | Print | Product List | Glossary On
Versions: 1 2 3 4 5 6 7 8 9 10 11 12 13 14 15 16 17 18 19 20 21 22 23 24 25 26 27 28 29 30 31 32 33 34 35 36 37 38 39 40 41 42 43 44 45 46 47 48 49 50
000
ASUS45 KCYS 281510
RWRWY

WYOMING REGIONAL WEATHER ROUNDUP
NATIONAL WEATHER SERVICE CHEYENNE WY
900 AM MDT TUE JUL 28 2015

NOTE:  "FAIR" INDICATES FEW OR NO CLOUDS BELOW 12,000 FEET
WITH NO SIGNIFICANT WEATHER AND/OR OBSTRUCTIONS TO VISIBILITY.

WYZ001-281600-
YELLOWSTONE NATIONAL PARK

CITY           SKY/WX    TMP DP  RH WIND       PRES   REMARKS
LK YELLOWSTONE   N/A     40  33  76 CALM      30.35R
W YELLOWSTONE  NOT AVBL

$$
WYZ002>013-054>058-071-098>099-281600-
NORTHERN WYOMING

CITY           SKY/WX    TMP DP  RH WIND       PRES   REMARKS
JACKSON        FAIR      45  37  76 SW8       30.33S
CODY           FAIR      57  30  35 W15G22    30.17R
GREYBULL       FAIR      60  39  45 SE5       30.13R
WORLAND        FAIR      59  34  39 CALM      30.14R
SHERIDAN       FAIR      60  45  57 SE5       30.08R
BUFFALO        FAIR      56  43  61 SE6       30.11R
GILLETTE         N/A     59  42  53 MISG      30.08R
HULETT         FAIR      61  39  44 W20G29    30.05R
NEWCASTLE      FAIR      57  39  51 NW12G17   30.08S

$$
WYZ014>020-022>026-101>103-281600-
CENTRAL WYOMING

CITY           SKY/WX    TMP DP  RH WIND       PRES   REMARKS
BIG PINEY      FAIR      47  29  49 CALM      30.34R
PINEDALE       FAIR      46  30  53 NW13      30.34R
DUBOIS         FAIR      46  28  49 N23G29    30.28S
LANDER         FAIR      56  30  37 E5        30.21R
RIVERTON       FAIR      58  28  32 NW24G30   30.21R
CASPER         FAIR      61  25  25 W21G26    30.17R
DOUGLAS        FAIR      63  28  26 NW18G32   30.15R

$$
WYZ021-027>030-104>119-281600-
SOUTHERN WYOMING

CITY           SKY/WX    TMP DP  RH WIND       PRES   REMARKS
EVANSTON       FAIR      50  29  44 SW7       30.36R
KEMMERER       FAIR      50  25  37 W12       30.36R
FORT BRIDGER   SUNNY     55  28  35 NW9       30.38R
ROCK SPRINGS   FAIR      55  25  31 W17       30.33R
DIXON          FAIR      55  32  42 CALM      30.34S
RAWLINS        FAIR      54  20  26 W15       30.29R
SARATOGA       FAIR      57  25  28 W17       30.31S
LARAMIE        FAIR      59  30  33 SW10      30.25R
CHEYENNE       FAIR      64  34  32 NW12G21   30.19S
TORRINGTON     FAIR      68  35  29 W15G23    30.09S
PINE BLUFFS    FAIR      68  32  26 NW25G41   30.12S

$$



USA.gov is the U.S. government's official web portal to all federal, state and local government web resources and services.